STARLINK-31648, 59266

Orbit data source: Space-Track

STARLINK-31648, 59266 is a payload satellite owned by SpaceX/Seattle (US) in LEO that was launched on Tue, 19 Mar 2024 UTC via an FALCON 9 launch vehicle from the Air Force Western Test Range (AFWTR). Payload-class satellites include a variety of spacecraft equipped with specific instruments for various scientific and technological missions. These include communications satellites like Starlink; space stations such as the ISS; scientific satellites like the Hubble; Earth observation satellites from companies like Planet Labs, Umbra, and HawkEye 360; GPS; miniature CubeSats for education and research; and military/defense satellites.

Loading next visibility...
Identifier
59266, 2024-050N
Orbit
LEO
Country
Flag of USUS
Related business
Manufacturer
SpaceX/Seattle
Mission
Operational Commercial Communications
Bus & Motor
STARLINK V2M, Unknown motor
Mass
730 kg wet, ~700 kg dry
Launch date (UTC)
2024-03-19 (2 years ago)
Launch vehicle
FALCON 9
Launch site
Air Force Western Test Range (AFWTR)
Object type
Payload
Rocket body
Debris
Shape & HBR
Box + 2 Pan, 17.7 m
Radar Cross Section
33.884 m², Large (>1 m²)

Expand to show TLE details & history
Last TLE update: 3 days ago

TLE from 3 days ago
0 STARLINK-31648
1 59266U 24050N   26170.86918771 -.00000353  00000-0  21897-6 0  9997
2 59266  53.1621  66.3187 0001377  93.3286 266.7872 15.30198113126197
Epoch: 2026-06-19T20:51Z
TLE epoch observation values (Epoch: 2026-06-19T20:51:37.818Z)
Latitude
-0.00003°
Longitude
-154.68087°
Altitude
476.174 km
Speed
7.629 km/s
True Right ascension
04h 25m 16s
True Declination
0° 00' 00"
Sunlit
Object was in daylight at epoch
Visualization orbit readout
Latitude
Unknown
Longitude
Unknown
Altitude
Unknown
Speed
Unknown
Apparent Right ascension
Unknown
Apparent Declination
Unknown
Sunlit
N/A
Visualization observer readout
Local Sidereal Time
21:30:07
Azimuth
Unknown
Elevation
Unknown
Doppler factor
Unknown
Orbital elements
Apogee altitude
476.421 km
Perigee altitude
474.533 km
Semi-major axis
6,853.614 km
Eccentricity
0.00014
Inclination
53.1621°
RAAN
66.3187°
Arg. of periapsis
93.3286°
True anomaly
266.77145°
Mean anomaly
266.7872°
Eccentric anomaly
266.77932°
Mean motion
3.82528 °/min
Orbital period
94.11 mins
BSTAR
2.1897e-7
Loading maneuver chart data...
Computing Atmospheric mass density...
Loading historical data...
Loading historical data...
Loading historical data...
Loading historical data...
Loading historical data...
Loading historical data...
Loading historical data...

Documentation

Showing up to 5 results
|